Aktuální počasí v Česku a ve světě - METAR

Seznam meteostanic umístěných nejčasteji na letišti v ČR a ve světě

Vyhledat místa podle abecedy:
A B C D E F G H I J K L M N O P Q R S T U V W X Y Z

Filtrovat:

ID stanice:
a/nebo
Název místa (fulltext):
 
Místo (ID)Naposledy načteno 
Jakarta (WIII) 05.03.2021 11:00 UTC Zobrazit METAR
WIII 051100Z 27005KT 6000 -RA FEW020 24/22 Q1010 NOSIG
Jerusalem (LLJR) Zatím nenačteno  
Joensuu (EFJO) 05.03.2021 10:50 UTC Zobrazit METAR
EFJO 051050Z AUTO 29008KT 9999 FEW027 M06/M11 Q1010
Johannesburg (FAJS) 09.01.2013 23:00 UTC Zobrazit METAR
FAJS 092300Z 01010KT 340V040 CAVOK 22/11 Q1020 NOSIG
Johnston I (PJON) Zatím nenačteno  
Reklama

Reklama


Počasí na Váš email

Emaily jsou bez reklamy a bez spamu



Odhlásit newsletter



Další české internetové stránky (nejen) o počasí najdete v katalogu TOPlist - weby o počasí nebo vyhledejte na internetu, co jste tu na 🌞 Slunečnu ⛅ zatím nenašli:
⭐ Přidat Slunečno.cz do oblíbených | 🏠 Nastavit Slunečno.cz jako HOMEPAGE

⬆️ Posunout stránku nahoru ⬆️
Reklama